GFSSW_sfc_dewp_000.txt.gz
Dewpoint
57 57 57 57 57 57 58 58 58 58 58 58 59 59 59 59 58 47 32 38 44 61 51 39 38 36 36 36 35 31 23 21 21 21 20 24 25 30 24 27 23 24 24 27 35
57 57 57 57 57 57 57 57 57 57 58 58 58 59 59 59 49 39 46 57 62 60 37 34 34 33 31 34 35 32 22 19 20 22 22 22 22 21 31 21 19 20 23 30 35
57 57 57 57 57 57 57 57 57 57 57 57 58 58 59 57 27 19 57 60 64 56 38 34 33 32 30 37 34 31 26 25 25 25 27 24 23 22 21 21 21 20 20 26 32
57 57 57 57 57 57 57 56 56 56 56 57 57 58 58 50 8 22 61 63 63 40 35 33 31 30 30 29 32 32 31 28 28 27 28 25 24 22 21 24 23 22 21 24 29
58 57 57 57 57 57 57 56 57 56 56 57 57 57 47 23 22 46 62 61 46 38 34 31 29 30 28 29 29 30 30 31 31 30 29 29 28 27 23 24 24 23 23 23 26
58 58 58 58 58 57 57 57 57 57 57 56 57 57 35 17 26 50 52 46 40 35 32 30 28 30 27 27 28 27 28 27 27 27 28 27 25 27 24 26 23 24 24 24 23
59 58 58 58 58 57 57 57 57 57 57 57 56 54 36 20 36 45 44 40 38 35 28 30 29 28 26 24 26 27 24 23 23 24 26 27 25 24 25 29 22 20 21 22 24
59 58 58 58 58 57 57 57 58 58 57 57 56 49 14 33 39 38 36 32 33 31 29 29 29 28 25 26 22 20 27 18 17 25 23 21 14 14 15 18 19 20 21 21 22
58 57 57 57 57 57 57 57 57 57 56 56 49 31 14 41 33 35 34 30 31 31 31 31 29 26 25 22 19 19 16 16 17 21 20 21 17 18 19 21 20 20 20 21 21
57 57 57 57 57 57 57 55 55 54 55 55 43 23 21 18 35 34 33 32 30 29 28 29 27 24 24 20 13 15 17 18 16 15 19 20 21 20 22 22 21 21 21 20 21
58 57 57 57 57 57 51 43 30 26 40 27 29 19 18 35 37 33 34 32 29 26 24 26 23 20 19 21 17 14 15 15 16 17 18 16 16 17 18 21 19 18 19 21 21
58 58 57 57 57 54 44 41 40 41 28 33 34 33 32 34 28 34 33 28 28 24 25 25 23 23 22 21 21 21 19 17 18 20 19 19 18 18 19 19 18 18 18 18 19
58 58 57 57 56 47 42 41 46 45 32 28 29 29 27 30 26 28 31 29 27 25 24 21 20 26 24 22 20 20 20 18 18 20 20 18 15 18 19 20 19 20 19 19 19
59 58 57 56 50 46 43 45 46 42 30 28 22 26 31 30 22 29 32 28 26 24 25 24 25 23 24 21 21 17 21 20 20 19 15 18 11 12 14 13 14 14 15 17 18
58 58 57 54 49 47 45 46 45 33 28 30 23 31 32 22 23 25 28 28 25 25 24 19 21 23 23 22 22 20 20 19 20 19 19 18 14 19 14 13 13 14 15 17 17
56 57 56 52 49 48 47 46 36 30 29 29 22 24 25 27 26 26 27 25 25 23 24 24 23 22 21 23 23 22 20 20 22 19 17 17 14 11 11 12 16 11 12 15 16
53 55 55 52 49 48 46 46 40 33 34 28 21 24 21 18 25 24 25 24 20 21 20 19 19 22 22 21 23 20 19 16 14 16 15 17 15 12 12 14 13 13 14 16 19
50 53 55 53 51 48 50 44 34 35 33 33 31 29 30 26 28 24 22 21 22 18 16 20 25 19 21 20 18 20 19 19 15 13 16 18 15 19 16 16 17 16 18 18 19
50 54 54 55 49 52 48 38 34 34 36 36 38 34 33 30 31 25 23 24 26 20 25 18 19 20 21 20 18 17 18 21 21 23 20 17 18 18 20 16 15 16 19 21 20
45 50 51 54 51 51 44 38 36 39 39 39 36 37 33 30 28 25 24 27 25 24 23 22 19 22 19 22 21 18 20 18 20 17 16 16 15 17 17 17 17 18 20 27 26
45 44 48 52 52 46 38 37 39 40 40 38 38 37 36 35 32 33 36 34 24 26 23 22 27 26 28 22 22 24 19 19 19 22 18 18 17 18 17 18 19 24 27 27 27
44 37 50 52 42 42 39 39 40 38 39 40 39 38 37 37 35 33 33 34 33 29 25 25 34 31 28 30 25 21 24 22 21 19 19 20 20 23 22 23 28 29 30 30 28
39 39 50 50 35 37 38 39 40 39 39 39 38 39 37 36 34 36 35 36 36 36 36 37 34 28 28 25 31 31 32 31 31 32 28 25 25 26 24 25 27 23 18 19 19
39 31 40 45 41 38 34 34 34 38 39 39 38 39 37 35 35 34 35 35 35 35 38 38 34 30 25 24 29 30 31 33 33 29 27 28 27 28 24 23 22 19 12 11 13
33 31 34 29 33 35 36 33 32 32 34 36 35 36 35 33 34 35 35 35 34 35 33 35 30 30 29 33 33 31 30 28 28 28 26 26 27 26 21 22 22 22 17 15 15
29 30 32 30 29 30 31 29 30 29 29 30 29 31 31 30 32 32 32 30 30 32 30 32 27 28 23 23 21 22 25 24 24 23 25 26 22 20 20 18 16 18 22 16 18
32 33 33 26 27 26 25 28 27 28 31 29 28 30 29 31 32 32 29 29 29 27 27 27 26 23 18 19 20 15 18 20 20 18 22 18 18 21 18 13 6 12 23 15 23

GFSSW_sfc_dewp_003.txt.gz
Dewpoint
57 57 57 58 58 58 58 58 58 58 58 59 59 59 59 59 58 51 32 38 45 62 51 40 39 38 39 39 37 34 26 24 23 24 21 25 23 23 24 22 24 25 25 26 39
57 57 57 58 58 58 58 57 57 57 58 58 58 59 59 58 50 39 46 57 63 58 37 35 36 36 33 37 38 33 26 23 22 22 24 25 24 25 24 22 22 22 24 29 39
57 57 57 58 58 58 58 57 57 57 57 57 58 58 58 57 24 15 56 59 63 52 37 36 35 34 33 36 36 33 28 27 23 22 26 28 26 25 24 25 25 24 24 25 32
58 58 58 58 58 58 58 58 58 58 57 57 57 58 58 49 9 18 59 63 62 39 35 34 34 33 32 31 34 31 31 28 30 29 29 27 28 26 23 26 28 26 25 25 28
59 59 59 59 59 59 58 58 58 58 58 57 57 57 48 21 19 50 63 63 42 38 34 32 32 32 29 30 31 32 31 31 32 30 30 30 30 29 26 26 26 26 26 25 25
59 59 59 59 59 59 58 58 58 58 58 58 57 57 32 19 29 55 55 46 41 36 34 32 30 31 29 29 29 29 30 28 28 27 28 27 25 27 26 27 24 24 24 24 25
59 59 59 59 59 58 58 58 58 58 58 58 56 54 32 17 38 50 46 42 40 34 33 33 30 29 28 26 27 28 25 23 23 24 25 28 25 25 25 26 24 22 21 21 22
59 58 58 58 58 58 58 58 58 57 57 57 56 48 9 35 42 40 35 33 37 34 31 30 31 29 27 28 23 22 23 19 18 24 23 23 15 17 17 18 17 17 17 20 21
58 58 58 58 58 58 58 58 57 56 55 55 47 25 11 43 34 36 35 31 32 31 32 30 29 27 27 22 19 21 16 16 18 21 21 23 20 20 21 20 20 20 20 20 20
58 58 58 58 58 58 57 54 55 55 55 55 43 21 20 21 36 35 34 32 30 31 30 29 27 24 23 19 13 15 16 17 16 15 19 20 21 21 22 21 20 20 20 21 22
58 58 58 58 58 58 49 40 32 27 38 24 26 19 17 34 38 34 35 31 29 27 25 28 23 21 20 21 18 15 14 14 15 17 19 17 17 18 19 20 19 19 19 19 21
59 59 58 58 58 54 43 38 38 39 28 31 35 34 33 33 28 34 34 29 28 25 26 25 23 23 22 22 21 20 19 18 19 20 19 20 18 18 19 19 19 19 19 21 21
59 59 59 58 56 48 42 40 47 45 31 30 31 31 28 30 27 27 32 30 27 25 24 22 23 26 24 22 20 21 19 18 18 20 20 18 16 19 17 21 21 21 22 21 21
59 59 58 57 51 47 44 45 47 42 32 32 24 26 31 28 22 30 33 29 27 25 25 24 26 23 24 21 21 19 21 21 20 18 15 17 12 16 15 15 17 17 18 17 19
57 58 58 56 51 48 45 47 46 33 32 32 23 32 33 23 24 26 29 29 25 26 22 20 23 23 23 22 22 21 21 20 20 20 18 18 14 14 15 14 15 15 18 17 19
53 56 56 53 51 49 47 46 36 35 31 33 22 24 25 27 26 27 28 26 26 25 25 24 24 22 20 22 22 22 21 20 22 19 16 17 14 15 12 13 13 15 17 18 20
50 51 56 53 51 48 46 48 39 34 37 32 22 22 20 16 24 25 26 25 20 20 22 21 21 23 22 20 22 22 19 16 15 16 15 18 15 15 15 16 16 15 16 21 23
47 51 55 54 50 48 50 44 34 34 35 36 34 33 30 27 25 25 22 20 24 20 20 24 26 21 22 21 20 21 19 20 16 17 18 20 19 22 20 21 20 19 21 27 26
47 52 53 55 50 52 48 37 33 33 37 36 37 34 32 32 30 26 23 24 26 22 23 22 21 20 22 21 20 19 18 23 22 24 22 18 20 22 25 18 25 28 27 27 27
44 48 49 54 51 51 44 37 36 38 40 40 35 36 32 32 32 30 29 30 26 26 26 27 29 24 24 24 21 20 21 19 21 16 16 17 16 18 21 27 28 27 25 21 21
45 42 47 52 52 46 36 37 38 41 41 38 38 36 36 35 32 33 37 36 31 28 27 23 27 26 28 23 19 21 19 19 20 22 17 17 20 24 28 28 26 19 14 14 15
43 33 50 52 43 43 37 38 40 39 40 40 40 39 37 36 35 35 34 36 34 26 24 26 31 29 29 29 26 25 25 26 28 25 22 23 25 27 26 25 20 8 8 11 14
38 38 49 50 35 37 38 38 39 38 38 39 37 37 37 35 33 34 35 36 37 37 35 36 32 26 25 24 31 30 30 28 31 32 27 24 25 27 22 21 21 19 13 13 13
35 29 38 45 41 38 34 33 33 37 38 39 37 38 36 34 36 34 34 36 35 34 38 37 34 31 23 21 26 27 28 31 31 27 24 26 29 28 21 19 18 21 22 17 16
31 29 34 31 32 34 35 33 30 31 33 34 32 34 33 31 32 32 35 36 35 34 31 33 30 32 32 31 29 28 27 26 25 25 23 23 23 25 19 19 18 15 23 18 12
28 26 30 30 30 29 32 29 29 30 31 29 28 28 30 29 31 31 34 33 31 30 29 31 28 26 20 25 23 21 21 21 20 20 22 22 24 19 20 19 14 5 22 15 10
31 32 30 25 26 25 25 28 27 27 29 25 26 27 27 28 29 29 30 31 31 29 28 29 28 22 19 21 19 17 17 16 15 16 17 15 15 19 18 16 11 9 23 13 12

GFSSW_sfc_dewp_006.txt.gz
Dewpoint
58 58 58 58 58 58 58 58 58 58 58 58 59 59 59 59 57 50 28 36 43 61 52 40 39 37 38 38 36 34 25 21 20 22 15 24 22 22 22 22 23 25 24 24 36
57 58 58 58 58 58 58 58 58 58 58 58 58 58 59 59 48 37 49 56 61 58 37 34 34 36 33 36 37 31 27 21 22 20 18 21 24 24 23 22 23 24 25 26 32
58 58 58 58 58 59 58 58 58 58 58 58 58 58 58 57 30 16 56 60 63 52 36 35 35 33 31 35 35 34 25 25 23 21 22 23 24 26 23 22 22 22 21 23 28
58 58 59 59 59 59 59 58 58 58 58 58 58 58 58 48 11 19 59 63 61 40 35 35 34 32 32 31 33 30 31 30 28 28 29 27 27 27 26 22 21 22 24 27 26
59 59 59 59 59 59 59 58 59 59 58 58 58 57 46 22 22 51 62 62 43 37 34 33 32 32 28 30 32 32 29 30 31 31 29 30 29 27 25 25 24 24 28 28 26
59 59 59 59 59 59 59 59 59 59 58 58 58 57 32 17 33 56 58 46 39 37 35 33 29 31 27 27 29 28 30 28 28 28 28 27 22 23 18 21 21 20 20 19 21
59 59 59 58 59 59 59 59 59 58 57 58 57 52 30 21 39 52 46 43 41 36 35 34 32 30 30 27 29 27 24 22 21 23 24 27 23 23 20 21 21 17 17 17 19
59 58 58 58 58 58 59 59 58 56 55 56 56 48 23 35 43 44 37 36 38 33 31 32 32 30 27 27 24 22 22 18 16 23 23 24 15 16 17 16 16 16 16 18 18
58 58 58 58 58 58 58 57 56 55 56 55 48 32 21 44 32 36 34 32 34 32 32 29 30 28 26 22 20 21 15 16 17 20 21 24 17 17 18 18 18 17 17 17 19
58 58 58 58 58 58 57 52 56 55 54 53 41 23 21 21 35 35 33 33 31 34 31 30 28 24 24 19 14 15 15 16 17 15 17 17 18 18 18 19 19 18 18 20 20
59 59 59 58 58 58 48 41 41 36 35 27 27 22 21 34 37 34 33 30 30 28 26 29 23 21 20 21 18 18 17 16 17 18 20 18 18 18 19 19 19 19 19 20 21
60 59 59 59 58 54 44 38 36 37 34 33 32 31 32 33 27 33 33 30 30 25 28 25 23 24 24 23 22 21 20 19 19 20 20 18 18 19 20 20 20 20 20 21 20
59 59 59 59 57 51 43 40 48 44 34 36 32 31 29 31 27 29 32 31 28 27 26 22 22 26 24 22 21 21 20 20 19 21 20 19 19 19 16 20 18 19 20 18 21
58 59 59 58 54 49 47 45 48 43 36 36 28 26 31 29 24 30 33 30 28 25 26 25 26 23 24 22 22 20 22 22 21 19 19 18 17 20 18 16 17 18 19 20 23
57 58 59 57 54 51 47 47 47 39 30 34 23 33 33 23 25 27 30 30 26 26 24 20 25 25 24 23 23 20 22 20 20 20 20 17 15 17 17 15 15 17 22 26 25
52 56 56 54 53 50 47 46 42 34 31 34 23 25 26 27 26 28 29 27 27 26 26 24 25 23 21 23 23 23 22 21 23 21 18 18 16 15 12 14 17 20 26 27 28
49 51 56 54 52 48 47 49 37 33 37 34 26 22 20 19 25 25 26 26 23 23 23 25 22 24 22 21 23 22 21 23 20 22 19 18 17 15 16 20 23 26 26 26 27
47 50 55 54 50 48 51 46 33 32 34 36 34 34 35 31 27 25 25 27 25 21 22 25 26 24 24 24 27 23 23 22 21 21 20 23 18 18 23 28 27 27 25 24 24
46 52 54 56 50 52 49 38 30 32 35 37 37 34 33 34 32 29 26 28 28 25 28 29 28 22 23 22 22 22 20 23 25 31 23 18 18 21 27 27 27 24 22 20 22
47 50 50 54 52 52 45 35 33 37 39 39 34 36 33 33 32 34 34 31 30 28 26 31 31 33 28 23 23 21 23 22 21 20 21 16 16 17 23 27 25 21 19 17 19
47 41 48 52 53 47 37 36 34 39 41 38 37 35 34 34 34 34 36 34 33 33 27 31 33 29 29 26 24 22 19 19 20 22 22 22 19 23 27 27 23 18 16 17 18
45 33 51 52 42 43 37 37 38 37 40 39 40 38 36 35 33 32 32 32 36 31 32 31 32 31 28 30 27 26 26 25 25 24 22 23 21 28 27 24 20 13 14 15 16
41 40 50 51 35 37 39 36 37 36 37 36 35 38 37 35 33 31 32 35 36 37 35 37 35 30 29 28 32 30 30 28 27 33 30 27 26 27 26 24 21 22 17 17 17
39 32 40 46 43 36 34 33 35 37 36 36 35 38 36 34 35 32 30 35 36 34 38 38 35 31 25 24 25 26 28 29 29 28 26 26 24 24 28 24 21 17 16 19 12
36 30 35 35 36 36 33 31 30 30 33 34 30 33 31 29 28 29 30 34 35 34 33 34 32 31 33 33 33 32 32 29 28 28 26 24 25 26 30 25 18 9 6 16 4
32 32 33 32 30 32 33 29 29 29 31 26 27 28 28 26 26 28 30 30 28 30 30 31 29 27 25 25 26 27 26 27 25 23 22 21 19 21 15 14 12 4 3 15 2
35 35 32 27 28 28 28 27 28 29 28 26 27 27 27 28 29 30 30 30 30 29 27 29 28 26 21 24 21 21 23 21 18 18 16 13 19 20 11 10 8 7 7 12 4

GFSSW_sfc_dewp_009.txt.gz
Dewpoint
58 58 58 58 58 58 58 58 58 58 58 58 58 58 59 59 58 51 30 38 44 60 55 37 36 35 36 36 35 33 23 19 18 16 13 20 20 21 22 21 19 22 24 24 31
57 58 58 58 58 58 58 58 58 58 58 58 58 58 58 58 46 35 47 55 62 58 36 34 33 34 32 34 35 30 25 20 19 16 15 16 17 19 20 18 16 17 20 24 24
58 58 58 59 59 59 59 59 59 59 58 58 58 58 58 56 36 18 55 60 63 55 35 33 31 32 30 32 32 29 24 18 20 21 21 19 19 19 21 20 15 13 14 17 21
58 58 59 59 59 59 59 59 59 59 59 58 58 58 58 46 16 29 59 63 62 40 35 32 31 30 28 28 27 30 24 26 26 25 27 23 21 20 23 22 22 22 21 21 22
59 59 59 59 59 59 59 59 60 59 59 58 58 58 49 25 21 49 61 62 42 37 32 31 29 27 24 21 27 31 27 23 25 26 29 28 25 23 22 21 20 21 20 20 22
59 59 59 59 59 59 59 59 59 59 58 58 58 57 38 22 35 50 52 50 36 35 31 31 27 26 26 23 24 25 28 26 24 24 25 25 24 22 19 18 17 17 17 16 17
59 59 59 58 59 59 59 59 59 57 57 56 58 51 31 28 38 50 49 42 40 36 33 33 32 29 27 25 27 26 23 21 20 19 21 24 21 20 18 16 14 15 14 15 16
59 58 58 58 58 59 59 59 57 56 56 56 57 47 27 35 40 43 40 39 39 36 34 34 33 31 29 28 24 22 21 20 19 20 22 23 17 17 17 16 17 17 16 17 17
59 58 58 58 58 58 59 57 55 55 55 56 49 41 23 41 31 36 35 31 36 33 31 30 32 29 28 23 21 22 19 19 18 19 20 23 19 20 20 19 18 18 18 18 19
59 59 59 59 58 58 58 52 56 55 53 49 39 27 23 23 34 35 34 33 32 34 31 30 28 25 24 20 18 20 19 19 19 21 20 20 19 19 19 19 19 19 19 20 21
59 59 59 59 59 59 52 45 46 42 38 32 36 24 33 34 36 34 33 31 31 30 26 29 23 22 22 23 21 20 20 19 20 21 22 21 19 19 21 20 19 19 18 20 20
60 60 60 59 59 57 50 43 39 39 39 42 40 36 32 33 28 33 33 28 29 24 27 26 23 23 24 24 23 21 20 20 22 20 21 21 21 22 22 20 19 18 19 23 24
60 59 59 59 58 54 47 43 44 41 38 39 37 35 33 32 33 32 31 30 27 26 27 24 26 25 24 24 22 21 21 21 21 21 23 21 20 22 22 20 18 18 22 24 25
59 59 59 59 54 53 49 45 46 42 34 33 33 29 29 30 29 30 33 31 29 28 28 26 26 25 24 22 21 21 22 22 22 22 21 22 18 20 19 18 19 24 27 26 28
57 58 59 58 55 51 47 45 47 42 28 34 25 35 32 25 27 29 31 30 27 26 25 24 25 25 25 23 23 21 22 21 22 24 24 22 18 17 18 17 17 26 27 28 29
54 57 57 55 55 51 47 46 45 34 29 34 26 28 27 26 26 30 29 29 28 26 26 23 25 23 23 23 24 23 22 22 24 24 22 22 19 15 14 16 20 26 27 28 28
49 54 56 55 50 50 48 49 37 34 36 33 28 23 23 21 25 25 26 26 26 25 24 26 25 25 24 23 25 23 21 23 24 25 23 20 18 17 17 22 23 26 25 26 28
47 51 56 54 50 49 53 44 35 33 32 37 36 36 35 33 28 27 29 28 28 25 26 25 23 26 25 25 26 27 25 27 24 23 23 26 22 20 26 27 26 25 24 25 25
47 49 53 56 52 52 48 38 34 30 32 33 34 31 31 35 33 33 31 30 31 29 27 26 25 27 25 25 24 24 22 26 26 29 26 22 22 21 28 26 24 23 22 22 23
48 49 48 54 52 53 44 37 35 34 35 37 30 31 28 30 32 31 34 32 32 29 28 30 28 30 28 24 25 26 32 32 29 25 23 17 16 16 20 25 24 22 21 21 21
48 41 48 53 54 48 37 36 34 34 39 37 32 32 31 31 32 34 32 33 33 32 29 31 32 28 30 26 24 23 22 23 21 22 21 19 17 19 25 27 24 21 19 20 19
42 32 51 53 43 40 38 32 36 34 38 35 36 36 35 32 30 31 30 30 34 34 32 32 32 31 26 27 29 30 26 25 24 25 24 24 26 27 27 26 24 19 18 18 19
35 36 51 52 35 36 35 33 34 34 34 34 36 36 33 32 30 30 30 33 36 35 35 36 33 29 27 23 32 31 27 28 29 29 27 25 24 27 27 25 25 24 19 19 18
37 29 42 46 41 34 32 31 31 37 35 34 33 32 32 31 31 28 27 33 37 35 38 37 30 29 24 21 25 28 28 31 33 29 28 26 24 25 26 27 28 24 21 21 19
37 28 35 35 38 37 32 28 28 28 33 33 30 29 28 25 24 23 25 26 31 34 33 33 30 28 28 27 27 27 26 25 25 25 23 23 25 27 28 26 24 28 15 11 15
31 31 35 33 33 34 34 30 29 27 29 26 27 23 28 28 27 26 27 27 25 22 27 27 26 26 25 24 23 23 23 23 24 24 23 22 20 19 17 16 16 15 7 4 12
37 36 34 30 31 31 32 31 26 28 29 28 28 27 26 26 28 28 29 30 31 28 26 25 26 23 18 19 19 18 20 19 19 19 18 15 21 22 16 12 12 12 9 1 7

GFSSW_sfc_dewp_012.txt.gz
Dewpoint
58 58 58 58 58 58 58 58 58 59 58 58 58 59 59 59 58 55 39 45 46 61 59 39 37 37 41 41 39 37 28 24 22 21 19 22 20 21 22 21 22 23 23 24 35
57 58 58 58 59 59 59 59 59 59 59 59 59 59 59 58 49 39 53 61 61 61 40 36 35 36 35 39 38 34 31 27 21 20 20 19 18 18 17 19 20 18 20 24 26
58 58 59 59 59 59 59 59 59 59 59 59 59 59 59 57 42 34 58 60 61 57 40 36 33 35 33 35 34 34 29 25 21 24 26 26 23 20 19 22 22 21 22 23 23
58 59 59 59 59 59 59 60 60 60 59 59 59 59 59 50 25 42 57 62 62 45 37 36 33 35 32 30 31 28 28 25 28 27 28 27 27 25 23 22 25 24 23 23 22
59 59 59 59 59 59 59 60 60 60 59 59 58 59 52 35 30 51 61 62 49 42 34 33 31 31 28 25 26 28 30 29 27 27 26 28 29 27 25 24 23 21 21 22 20
59 59 59 59 59 59 59 59 59 59 58 58 58 58 47 29 40 49 50 52 38 37 33 33 31 31 28 26 26 28 29 27 25 24 24 25 25 25 23 23 20 19 19 18 18
59 59 58 58 59 59 59 59 59 57 56 57 57 53 39 32 43 51 49 45 41 37 35 35 34 35 31 28 28 28 25 24 22 23 23 26 22 21 22 18 17 17 17 17 19
59 58 58 58 59 59 59 59 58 55 56 56 58 50 34 39 45 44 42 41 42 39 37 35 37 35 33 32 28 24 24 22 23 21 28 20 18 21 21 20 20 19 19 19 20
59 58 58 59 59 59 59 59 55 55 56 56 53 46 30 43 34 38 37 35 37 36 35 30 38 33 32 27 24 24 21 21 23 21 24 22 20 22 23 21 20 19 20 20 24
59 59 59 59 59 59 59 58 55 55 55 49 43 36 29 28 37 37 37 37 36 36 34 34 32 29 27 24 19 22 22 21 21 21 23 22 21 23 21 21 21 22 20 22 26
59 59 60 60 59 59 56 49 48 46 42 37 41 28 36 36 39 36 37 34 34 33 29 31 26 25 24 24 22 23 22 21 21 22 23 22 21 21 22 23 22 19 21 25 26
60 60 60 60 59 59 55 46 42 42 41 44 43 43 38 36 33 34 35 31 32 27 28 29 26 26 26 27 25 24 22 21 22 24 21 21 22 24 24 24 22 22 25 26 28
60 60 59 59 59 56 49 45 45 44 38 40 40 39 37 36 36 35 33 32 29 28 27 26 27 28 27 26 25 24 22 22 22 24 23 22 22 23 25 24 22 25 26 28 29
60 60 59 59 56 54 49 46 47 45 35 35 35 31 31 34 33 33 35 34 30 30 29 28 29 27 27 25 25 23 24 24 24 22 21 23 20 22 22 19 26 26 28 28 29
58 59 59 58 56 51 47 46 48 45 29 34 28 37 35 30 30 33 34 32 29 30 28 29 27 27 26 25 25 25 25 23 23 24 25 24 22 21 22 20 26 27 28 28 29
56 57 58 56 56 51 48 47 47 35 31 31 30 31 29 28 29 32 32 31 31 28 27 26 26 26 26 26 26 26 25 24 23 25 24 24 21 20 19 21 25 26 27 28 29
52 56 56 55 51 51 49 49 39 34 37 33 29 26 27 26 27 28 28 26 26 26 25 27 26 26 26 24 26 25 23 24 22 23 22 22 21 20 21 23 26 26 26 28 28
49 55 55 55 50 49 50 42 35 37 35 38 37 37 36 32 29 28 31 30 30 28 25 27 24 27 25 26 27 27 27 28 22 19 21 26 23 23 27 27 26 25 25 25 25
49 50 54 56 53 52 50 38 38 38 35 33 37 33 31 35 34 33 31 31 32 31 28 24 24 27 27 27 26 25 24 29 25 23 23 23 24 25 27 25 23 23 23 23 24
51 48 47 55 53 53 44 37 38 38 36 35 31 31 28 28 33 32 31 33 33 31 30 31 28 30 27 26 27 25 31 29 30 23 19 22 21 20 26 25 23 22 22 22 22
47 43 49 53 53 47 37 38 36 37 37 35 32 31 30 30 32 32 33 33 34 30 30 31 32 28 30 28 28 25 25 30 27 25 20 17 17 20 26 26 24 23 22 21 20
45 38 51 54 41 42 38 37 37 36 37 36 36 35 35 34 33 33 32 31 35 34 32 34 32 28 27 29 31 29 29 28 26 23 25 23 23 27 27 26 25 20 20 18 19
40 41 51 51 36 37 37 35 36 34 34 33 34 35 32 31 31 31 31 32 36 35 35 35 31 25 22 24 32 31 29 28 28 28 25 24 21 26 26 25 25 24 19 19 20
37 34 43 45 41 36 34 33 32 36 34 33 33 34 34 33 32 31 29 35 37 36 38 37 31 26 20 19 22 23 26 28 29 27 24 24 24 29 27 30 33 28 25 23 20
39 31 37 35 37 38 36 32 29 30 35 34 33 33 32 30 28 27 27 26 36 37 35 33 25 26 28 27 26 26 24 24 24 23 23 21 20 20 21 22 19 20 20 13 18
33 32 35 35 34 37 36 33 30 29 29 31 30 28 28 27 28 27 29 28 27 28 29 28 20 24 19 24 24 22 22 22 21 19 18 19 19 21 17 15 14 16 12 7 6
37 36 35 32 32 32 33 33 31 30 31 30 29 28 27 27 28 28 29 29 30 28 25 23 20 12 15 19 18 11 17 16 16 17 17 16 18 21 18 15 11 12 12 10 6

GFSSW_sfc_dewp_015.txt.gz
Dewpoint
58 58 58 59 59 59 59 59 59 59 59 59 59 59 59 59 58 56 45 46 47 62 57 42 39 36 37 37 36 32 24 21 21 17 18 21 19 20 21 21 22 22 22 22 35
58 58 59 59 59 59 59 59 59 59 60 59 59 59 59 59 54 42 55 62 62 62 40 35 34 34 33 36 35 30 27 25 22 20 21 23 23 21 17 17 18 20 22 23 37
58 58 59 59 59 59 59 60 60 60 60 60 59 59 59 58 42 36 58 62 61 59 43 37 34 33 33 34 33 32 26 27 25 27 27 26 25 24 20 21 21 21 22 24 23
59 59 59 59 59 59 59 60 60 60 60 59 59 60 59 52 15 44 58 60 60 47 39 36 33 31 30 28 31 28 29 27 30 28 27 26 27 27 27 26 25 24 25 24 22
59 59 59 59 59 59 59 60 60 60 60 59 58 59 51 38 32 53 61 61 50 43 36 34 32 31 28 26 25 25 29 30 29 28 26 26 25 27 27 27 27 25 23 20 20
59 59 58 59 59 59 60 60 60 60 59 57 57 58 46 28 44 53 53 50 41 39 35 33 31 30 27 26 25 28 28 26 26 25 25 24 24 25 24 24 20 18 18 18 26
59 59 58 58 59 59 60 60 60 58 56 57 57 54 42 31 47 51 49 45 42 39 37 36 34 32 32 27 29 27 23 23 23 24 23 25 21 21 23 21 20 20 20 25 28
59 58 58 58 59 59 60 60 60 56 57 57 57 51 29 38 45 47 42 40 41 37 36 35 34 33 32 31 27 24 23 21 23 23 26 20 18 21 21 21 20 21 20 27 29
58 58 58 59 59 59 59 59 57 55 56 57 52 46 32 42 36 37 37 38 36 35 32 31 34 30 29 26 23 24 19 20 22 24 24 20 18 20 22 23 22 21 25 27 30
58 58 59 59 59 59 59 58 55 54 55 53 47 34 31 28 36 36 34 37 35 34 31 32 31 27 26 25 18 21 21 21 21 22 23 22 20 20 22 22 21 24 26 29 30
59 59 60 60 60 60 57 50 46 44 45 38 36 28 29 37 38 36 36 32 34 33 27 30 25 23 22 24 22 21 22 21 22 23 23 22 23 23 22 22 22 24 27 30 30
60 60 60 60 60 59 56 44 42 43 42 43 44 43 36 35 34 35 34 29 31 26 28 27 25 26 26 27 25 24 22 21 22 24 21 21 21 23 24 24 23 26 28 30 30
60 60 60 59 59 56 49 44 44 41 38 40 40 39 36 36 35 34 32 30 27 26 26 26 26 28 26 25 25 25 23 22 21 23 23 21 22 22 24 25 27 28 29 30 30
60 59 59 58 55 53 48 46 46 41 34 35 36 32 32 34 33 32 35 32 29 27 27 27 27 27 27 27 26 23 25 25 24 21 19 26 20 22 23 25 27 28 28 29 29
59 59 59 58 54 52 47 46 46 43 27 33 30 37 33 30 32 32 33 31 29 29 27 28 26 25 25 25 25 24 24 22 22 22 24 24 22 23 24 25 26 27 28 28 29
58 58 58 56 55 51 47 46 46 34 29 30 30 32 28 27 29 31 31 30 30 27 27 26 25 25 25 25 25 25 23 23 24 25 22 24 23 21 19 24 26 27 28 28 29
57 57 56 56 52 49 48 48 38 34 37 30 26 27 27 26 27 29 27 25 26 25 24 27 26 26 24 23 25 23 21 24 21 21 21 25 23 23 24 26 26 27 28 28 28
54 56 56 55 51 50 50 42 34 38 37 36 35 33 35 24 27 26 26 26 27 27 25 26 25 25 25 24 26 24 26 26 21 19 20 25 22 23 26 26 26 27 27 26 26
54 54 55 56 51 53 48 36 36 37 36 36 37 33 32 34 34 29 29 30 33 30 29 30 27 27 27 26 28 26 25 29 25 20 22 24 24 26 26 24 24 24 24 24 24
50 48 50 56 54 52 44 39 37 39 36 34 31 32 28 29 31 32 31 33 31 30 30 30 27 31 27 28 28 27 32 27 28 17 16 21 22 24 25 23 23 22 23 23 23
47 44 49 53 54 48 38 39 38 39 36 34 32 31 30 29 32 32 32 34 33 29 31 31 31 29 29 28 27 26 25 30 29 27 19 16 18 24 26 25 22 22 22 20 18
46 40 51 53 40 42 38 39 39 36 38 37 36 35 34 32 32 32 33 31 34 33 32 33 32 25 29 29 31 29 28 27 26 22 24 24 22 26 25 24 23 21 20 20 18
42 43 51 51 36 37 40 39 39 36 36 36 35 34 34 32 33 33 32 35 35 34 34 35 30 21 21 21 31 30 29 28 28 30 26 24 22 26 25 24 21 20 20 19 20
39 37 43 46 40 37 37 36 35 37 35 34 33 35 34 34 33 31 30 35 36 36 39 36 33 24 18 16 24 24 25 26 26 25 21 22 23 22 22 27 26 27 26 20 20
39 34 37 35 37 38 37 34 33 32 35 35 33 33 33 31 30 30 32 33 35 38 35 32 25 28 27 27 26 26 25 25 24 24 22 19 20 21 22 19 18 16 23 22 20
33 33 34 35 36 38 37 34 33 32 33 32 32 33 33 32 31 25 27 27 26 30 29 30 21 24 17 24 24 22 22 22 22 22 21 21 18 16 17 15 14 16 12 8 11
36 35 35 32 32 35 34 33 32 33 31 30 32 31 29 28 29 29 29 29 30 27 25 25 21 14 13 21 18 10 15 12 12 11 14 12 16 19 17 15 10 9 10 10 3

GFSSW_sfc_dewp_021.txt.gz
Dewpoint
57 58 58 59 59 59 59 60 60 60 60 60 60 60 60 59 58 52 31 42 47 61 54 40 35 35 35 36 34 29 20 17 21 17 20 22 20 20 21 19 19 22 33 21 31
57 58 58 59 59 59 59 60 60 60 60 61 60 60 60 59 51 43 50 61 63 61 37 32 33 34 32 34 34 25 18 16 22 22 25 24 22 23 20 22 21 19 22 23 25
57 58 58 59 59 59 59 60 60 60 60 61 60 60 59 58 30 30 56 61 62 55 37 36 34 33 30 38 35 30 20 24 26 24 26 25 24 26 23 21 22 23 25 25 24
58 58 58 58 58 59 59 60 61 61 61 60 59 59 59 50 21 39 58 59 61 44 36 34 31 30 27 27 31 32 29 27 30 30 27 25 26 25 25 24 28 26 26 26 29
59 58 59 59 59 59 60 60 61 61 61 59 58 58 50 33 30 52 59 58 44 40 34 32 30 30 26 27 26 28 28 28 29 29 27 27 25 24 23 25 23 27 29 29 29
59 59 58 58 59 59 60 60 61 61 60 57 57 58 38 27 46 52 48 41 39 37 34 32 30 31 28 26 24 26 28 26 26 25 24 24 23 24 21 22 21 27 29 30 30
59 59 58 58 59 59 60 60 60 60 59 57 57 54 40 30 49 51 44 41 40 37 34 36 33 30 29 26 28 26 23 22 21 22 22 24 21 22 23 21 22 28 29 30 31
59 58 58 58 58 59 60 60 60 60 57 56 57 50 31 36 47 47 41 39 38 35 35 34 34 32 30 28 24 22 21 18 21 24 24 21 20 21 22 21 22 28 29 29 30
58 58 58 58 58 59 59 60 57 56 57 58 49 41 31 42 38 38 38 36 34 32 32 33 31 29 28 22 19 21 14 20 21 24 23 20 19 21 22 22 24 28 29 28 29
58 58 58 58 58 59 60 58 55 54 54 53 48 37 33 27 34 34 35 35 33 32 30 30 29 26 26 19 18 15 19 20 20 22 21 20 19 21 23 22 24 28 28 28 29
58 58 58 58 59 60 57 51 45 44 48 36 32 31 29 35 36 33 35 34 33 27 23 29 22 20 22 22 18 18 20 20 21 23 22 22 22 23 24 24 26 29 28 28 29
58 58 58 59 60 60 55 48 44 43 40 44 42 36 36 34 34 33 33 28 27 22 27 25 20 22 22 25 24 23 21 20 23 24 23 22 21 23 24 25 25 29 28 28 27
58 58 59 60 58 56 52 46 43 41 40 40 42 43 37 35 36 35 31 30 27 25 26 23 24 26 23 24 23 23 22 23 22 24 24 22 21 22 27 29 30 30 29 28 26
58 58 59 58 56 54 47 45 44 43 35 35 37 33 32 36 34 33 33 30 28 26 26 26 27 26 26 24 24 23 26 25 24 23 22 24 19 21 23 27 29 29 28 27 27
58 58 59 58 52 51 49 46 44 38 28 34 33 36 31 36 32 30 33 31 28 28 27 27 27 26 25 25 27 25 26 25 22 22 21 20 18 20 24 24 27 28 28 27 27
57 58 58 57 56 53 47 46 42 34 29 29 30 28 26 26 29 30 30 29 30 29 28 28 27 25 26 25 27 25 23 25 26 22 19 20 19 20 21 23 26 27 28 27 27
57 58 58 57 54 49 47 46 36 33 36 29 27 28 26 24 27 28 27 26 25 23 24 26 26 26 24 22 24 22 23 21 21 19 20 23 21 20 24 25 27 27 27 27 27
57 58 58 57 53 47 50 44 34 35 36 31 26 28 25 26 25 28 24 24 24 27 25 25 26 25 25 24 23 22 23 23 17 18 19 24 22 24 26 28 28 28 28 27 25
57 57 58 57 50 51 49 38 37 38 38 33 33 26 26 29 26 25 25 25 27 26 29 26 27 26 24 25 25 23 22 27 25 16 19 23 24 24 26 26 27 27 27 26 26
56 55 55 56 51 52 46 40 39 41 38 36 29 32 29 33 30 25 25 29 30 28 30 30 27 28 26 27 27 26 29 24 25 17 16 21 21 22 23 25 26 26 26 26 26
54 49 52 53 53 49 41 41 40 41 36 36 34 33 32 31 31 28 30 32 32 29 30 31 29 28 28 27 26 26 27 28 26 24 18 14 17 23 24 25 25 25 25 25 24
49 45 51 54 45 45 43 42 42 40 39 37 35 34 32 30 32 31 31 31 33 31 30 32 30 25 27 29 31 29 27 28 25 21 24 22 21 26 26 25 25 25 24 24 24
45 44 50 51 41 40 41 41 40 38 38 38 36 35 35 31 30 32 32 34 33 32 32 33 29 21 27 24 29 28 27 28 28 27 21 20 21 25 24 25 24 24 23 24 24
43 38 43 45 43 40 39 39 39 40 38 39 37 36 34 33 34 32 33 34 35 35 39 37 31 28 24 22 26 25 25 25 25 24 24 24 24 25 25 24 24 23 23 23 23
41 38 40 35 38 40 41 40 38 36 39 39 37 36 34 32 32 32 31 34 34 36 34 34 28 28 28 23 26 25 25 25 24 23 21 21 20 21 23 26 26 27 26 25 25
38 37 38 38 40 39 39 38 38 38 37 37 38 36 35 35 34 32 33 33 31 31 32 29 25 27 24 27 28 29 29 27 27 29 27 27 24 24 24 23 18 18 18 21 23
39 39 38 36 37 38 37 38 37 38 37 36 38 37 36 37 38 32 33 32 32 31 29 30 26 24 25 21 23 20 20 21 21 21 20 18 19 17 16 17 16 16 15 13 10

GFSSW_sfc_dewp_024.txt.gz
Dewpoint
57 57 58 58 59 59 59 59 60 60 60 61 61 60 60 59 57 51 28 42 47 60 54 38 35 34 35 35 33 26 17 15 23 16 20 22 21 21 22 28 21 20 35 22 26
57 57 58 58 58 59 59 60 60 60 60 61 60 60 59 59 49 39 49 59 62 60 35 31 32 32 32 34 33 22 13 11 20 30 31 23 25 23 23 22 29 21 25 25 28
57 57 58 58 58 59 59 60 60 60 61 61 60 59 59 57 29 28 56 59 62 54 36 35 34 31 28 37 37 30 15 21 25 24 26 25 24 25 32 21 22 24 25 26 30
58 58 58 58 58 59 59 60 61 61 61 61 58 58 58 48 27 37 57 60 61 42 36 34 32 31 26 31 31 31 28 26 29 29 28 25 26 25 25 24 27 27 28 29 29
59 58 58 58 58 59 59 60 61 61 61 59 58 58 48 30 31 51 59 56 43 38 33 32 30 29 23 28 26 32 27 28 29 29 28 27 25 24 24 24 27 29 29 29 29
58 58 58 58 58 59 59 60 61 61 60 58 58 58 35 28 45 50 45 39 38 35 33 32 29 30 27 26 24 25 27 25 25 25 25 24 23 25 22 21 26 29 29 30 30
59 58 58 58 59 59 59 60 60 60 60 57 57 53 36 32 50 49 43 39 39 35 32 34 32 29 28 25 27 26 22 22 20 22 20 24 20 21 22 22 26 28 29 29 30
58 58 58 58 58 59 59 60 60 59 57 56 56 47 34 35 48 46 40 39 35 34 35 34 33 31 29 27 23 22 20 19 19 24 23 21 19 21 22 21 25 28 28 28 29
58 58 58 58 58 58 59 60 56 56 57 57 48 39 31 42 41 39 38 36 34 32 33 32 31 29 27 22 20 20 20 17 19 24 22 19 19 22 22 22 26 28 28 28 28
57 57 58 58 58 59 59 59 55 53 54 52 45 37 33 28 34 34 36 35 31 31 30 29 28 26 25 20 20 19 18 18 19 21 21 19 19 20 22 22 25 28 27 27 27
57 58 58 58 58 60 57 51 44 43 46 37 34 34 30 35 36 32 35 33 31 25 24 28 22 21 23 21 20 18 19 19 20 23 23 22 22 23 24 24 27 27 27 27 27
57 58 58 58 59 59 56 49 44 43 41 44 42 34 34 33 31 31 34 28 25 22 27 24 21 22 23 25 21 21 20 19 21 24 23 23 22 23 24 26 26 28 27 27 25
57 57 58 58 59 58 53 49 43 42 41 40 43 42 41 34 34 33 32 30 24 25 24 22 23 24 22 22 22 22 21 21 19 23 24 25 22 23 27 29 29 28 27 26 25
57 57 57 59 56 54 51 50 43 43 36 35 37 36 33 37 36 34 32 30 27 25 26 24 26 26 24 22 21 19 24 23 23 24 23 24 19 21 24 27 28 27 26 26 26
57 57 57 58 53 51 50 45 41 39 27 34 35 35 32 36 33 31 32 30 27 27 26 28 26 25 25 25 25 24 27 26 25 23 21 20 19 20 24 24 27 28 27 26 26
57 57 57 58 55 52 46 45 40 34 29 32 31 28 30 27 29 30 30 29 30 28 29 28 29 27 27 26 27 25 24 25 25 22 19 20 19 20 21 23 26 28 27 27 26
57 57 57 58 53 48 47 45 35 33 34 29 28 27 28 25 28 28 28 27 26 27 27 28 27 27 24 23 23 22 22 21 20 19 20 23 20 20 23 25 26 27 27 27 26
56 57 57 58 54 47 49 43 33 35 35 30 28 27 25 25 25 27 27 27 27 27 25 25 25 27 26 26 23 22 23 23 17 18 20 24 22 23 26 28 28 28 27 27 26
56 56 56 58 51 50 48 38 36 36 37 29 28 24 24 26 24 26 24 24 26 25 27 25 27 26 24 25 24 22 21 25 23 14 18 23 24 24 26 27 27 27 27 26 25
55 54 54 58 52 51 45 40 39 39 38 31 28 27 24 30 26 23 24 25 28 26 30 29 26 28 26 27 27 25 26 23 24 16 17 21 22 23 23 25 27 27 26 26 26
55 50 55 58 54 48 40 41 42 41 38 32 31 30 28 31 27 25 26 28 30 30 30 31 29 27 27 25 25 27 26 27 25 25 21 15 20 22 24 25 26 27 27 26 26
53 46 55 55 46 46 41 42 43 41 40 36 36 34 32 32 29 29 29 30 32 31 28 31 29 25 26 29 30 28 27 27 24 21 22 23 23 26 26 26 27 27 27 26 26
47 46 53 54 42 42 44 44 43 41 40 37 35 35 33 32 32 32 32 34 32 32 32 33 29 21 24 26 27 27 27 28 28 26 21 23 23 25 25 25 26 26 26 26 25
44 39 43 45 46 44 41 40 40 42 40 41 39 37 36 34 34 33 32 35 34 33 38 36 30 25 23 22 27 26 27 27 27 27 26 25 25 25 25 25 24 24 24 24 24
42 39 41 38 41 43 43 40 39 39 40 41 39 38 36 35 34 34 34 34 34 37 35 34 28 28 28 25 25 24 25 26 25 26 25 25 25 26 27 27 25 25 24 23 23
38 38 39 38 41 41 42 39 39 40 39 38 38 38 38 37 36 33 33 33 32 32 33 31 32 29 24 28 26 25 26 25 26 26 24 26 25 27 27 23 23 25 25 23 22
39 39 39 37 37 38 38 39 39 41 39 40 40 39 38 38 39 35 36 36 36 33 32 31 27 23 25 22 24 24 26 27 26 27 26 25 27 19 20 21 21 19 18 17 18

GFSSW_sfc_dewp_027.txt.gz
Dewpoint
57 57 58 58 58 58 59 60 60 60 61 61 60 60 60 59 57 49 27 44 46 60 54 37 35 35 37 37 33 29 16 18 21 20 21 24 23 24 25 22 24 24 24 26 30
56 57 57 58 58 58 59 60 60 60 61 61 60 59 59 59 47 35 51 58 61 59 35 31 32 33 33 36 34 22 15 14 21 20 22 25 25 26 24 24 24 25 27 30 31
57 57 57 58 58 58 59 60 60 61 61 61 59 59 58 56 30 29 57 58 61 53 36 36 34 32 30 34 33 30 16 19 25 25 27 26 26 27 25 25 26 29 26 29 30
58 58 58 58 58 58 59 60 61 61 61 61 58 59 58 45 28 36 57 60 60 41 36 34 32 29 27 27 34 26 29 26 32 30 28 27 27 27 27 28 27 29 29 29 29
58 58 58 58 58 58 59 60 61 61 61 60 58 59 44 31 32 51 58 57 43 37 33 33 31 30 23 28 28 31 29 28 30 28 29 29 27 26 26 26 29 30 30 29 29
58 58 58 58 58 58 59 60 60 60 60 59 58 58 33 31 46 48 42 39 38 35 34 32 30 30 27 26 26 27 28 26 25 25 26 25 24 24 23 27 29 29 29 29 29
59 58 58 58 58 58 59 60 60 60 59 57 57 52 34 35 49 47 41 38 39 35 33 35 32 31 29 26 29 27 24 22 22 23 22 25 24 22 22 25 28 28 28 28 29
58 58 58 58 58 58 59 60 60 58 57 56 56 45 35 36 49 45 40 38 35 34 35 35 33 32 29 27 23 24 22 21 23 25 25 24 22 24 22 22 26 27 27 27 28
58 57 58 58 58 58 59 59 58 56 57 57 47 37 33 43 42 40 38 35 33 33 34 32 32 30 28 23 22 21 21 20 20 25 24 23 23 24 23 23 26 27 27 27 27
57 57 57 58 58 58 59 59 55 53 53 51 43 38 33 29 34 35 36 34 32 33 32 30 28 26 23 22 20 21 19 19 19 22 23 22 20 22 23 24 26 27 27 26 26
57 57 57 58 58 59 58 52 45 42 46 37 35 35 31 34 35 34 36 32 29 26 26 29 24 23 24 22 23 21 19 18 20 23 23 22 21 22 24 25 27 27 26 26 25
56 57 58 58 58 59 57 49 44 43 40 44 43 36 32 32 29 32 34 28 26 23 27 24 22 24 25 24 21 20 20 19 21 23 23 22 23 24 25 26 27 27 26 25 25
57 57 57 58 58 58 55 50 44 42 41 41 43 42 40 33 30 30 32 29 24 25 24 21 23 24 22 23 23 22 20 20 19 24 25 23 24 25 27 29 28 27 27 25 24
57 57 57 57 56 56 54 55 43 43 36 36 38 40 35 35 34 34 33 29 27 23 25 22 25 25 22 21 21 19 23 22 22 23 22 24 22 23 25 27 28 27 25 25 24
57 57 57 58 53 53 51 46 42 39 26 34 36 35 35 37 34 32 32 31 28 28 28 30 26 26 26 25 23 25 26 24 25 25 23 22 21 22 25 23 27 27 26 26 25
57 57 57 57 55 52 46 43 40 33 28 33 32 28 32 30 29 30 30 30 30 28 28 29 28 27 27 27 25 26 25 25 25 22 19 22 21 20 20 23 26 28 26 26 25
57 57 56 57 53 48 46 43 36 32 34 29 30 28 32 26 28 29 28 27 29 28 27 28 27 26 25 24 24 23 22 21 21 20 20 22 19 21 22 25 26 28 27 26 26
56 56 56 56 52 47 48 42 34 34 34 30 29 28 29 27 27 27 28 27 28 27 27 26 24 27 27 24 24 23 23 23 18 18 21 23 21 23 26 28 28 28 27 27 26
56 56 55 56 51 51 47 38 34 35 35 27 27 25 25 25 26 25 27 27 29 26 25 25 24 26 25 25 25 22 22 26 23 15 20 23 24 26 27 27 27 28 27 26 25
55 54 53 56 53 52 45 39 38 38 33 29 29 28 25 25 24 24 24 24 26 27 30 28 26 27 25 26 28 24 26 22 24 15 15 21 22 23 24 25 27 27 27 26 26
54 49 54 57 53 49 40 39 40 41 35 30 31 30 27 28 25 24 24 25 26 27 29 30 29 28 26 24 25 27 24 26 24 24 19 17 20 24 24 25 26 27 27 27 26
53 46 55 56 46 46 42 39 41 41 40 38 34 33 28 30 26 25 24 24 30 29 27 31 30 26 25 29 29 28 25 26 24 21 22 23 23 26 26 26 27 27 27 27 27
49 49 55 53 41 42 43 43 41 41 41 39 37 35 34 31 29 28 28 32 32 30 29 32 29 24 25 27 28 27 27 27 27 26 22 21 22 26 25 25 27 27 27 27 27
45 40 44 50 48 43 41 41 41 43 41 40 38 36 33 32 33 33 32 34 33 33 38 35 30 27 26 25 28 27 27 27 27 23 24 24 25 24 25 25 25 26 27 27 27
44 40 41 40 41 44 43 41 40 40 42 41 39 37 36 35 34 34 33 34 35 37 36 34 30 28 28 25 27 27 27 27 26 26 26 25 26 27 27 26 26 25 25 25 25
39 38 40 38 40 42 43 42 40 41 40 40 40 39 38 37 37 36 35 34 33 34 34 35 33 29 26 27 25 25 25 27 27 27 27 27 26 26 28 26 26 26 25 24 24
39 40 40 38 37 38 39 40 42 42 40 40 41 40 39 40 38 37 38 38 37 35 34 34 31 31 30 24 27 27 27 26 26 26 26 24 27 26 26 26 25 24 25 25 23

GFSSW_sfc_dewp_030.txt.gz
Dewpoint
57 57 58 58 58 59 59 60 60 61 61 61 61 60 60 59 58 49 25 42 48 59 54 35 34 35 37 35 32 26 16 18 21 21 20 23 20 21 24 21 23 23 24 29 31
56 57 57 58 58 58 59 60 60 61 61 61 61 59 59 59 43 34 52 57 60 60 33 29 28 31 31 34 33 22 18 15 21 20 21 23 22 23 21 22 20 24 27 29 30
57 57 57 57 58 58 59 60 60 61 61 61 60 59 59 56 32 28 57 58 61 52 35 35 32 28 28 32 32 27 16 16 21 22 25 25 25 25 23 22 23 24 26 29 29
58 58 57 58 58 58 59 60 61 61 61 61 60 59 58 44 27 35 58 60 59 40 36 33 30 25 25 23 33 22 26 24 29 29 27 26 26 25 26 25 27 28 29 29 28
58 58 58 58 58 58 59 60 61 61 61 61 60 59 44 33 33 49 57 59 43 35 33 31 26 27 20 25 29 28 28 28 29 29 28 28 27 24 25 28 28 29 29 28 28
58 58 58 58 58 58 59 59 60 60 60 60 59 58 36 34 46 45 41 39 37 34 32 30 27 29 26 26 25 26 26 25 25 25 26 26 24 26 24 28 28 28 27 28 28
58 58 58 58 58 58 59 60 60 60 58 57 57 50 37 37 47 44 39 37 38 33 32 33 33 29 29 27 28 26 23 23 23 22 22 25 23 22 24 27 27 27 27 28 27
58 58 58 58 58 58 59 59 59 57 57 57 56 42 37 36 50 43 39 36 35 35 35 35 34 32 29 27 24 23 23 23 23 24 24 25 21 23 24 25 26 27 26 27 27
58 57 57 58 58 58 58 58 58 55 57 56 46 37 36 46 44 42 39 34 34 34 34 32 34 31 28 23 22 23 21 22 23 23 23 24 23 24 23 23 25 26 26 26 26
57 57 57 57 58 58 58 58 57 53 52 48 42 38 35 31 36 36 36 35 34 35 32 33 30 27 26 22 20 23 22 22 22 22 23 23 22 22 23 23 25 27 27 26 25
57 57 57 57 58 58 58 54 48 45 47 40 38 36 32 33 34 35 35 32 31 31 28 30 25 24 24 24 23 23 22 22 21 22 23 23 23 23 23 23 25 27 26 25 25
57 57 57 58 58 58 57 52 46 44 41 44 43 37 32 33 29 34 34 30 30 27 28 26 25 26 26 25 23 22 23 22 22 22 22 21 21 22 24 25 26 26 26 25 25
56 56 57 57 58 58 55 54 45 43 43 42 44 42 37 32 29 31 33 30 26 26 26 24 25 26 24 24 23 23 22 22 21 23 24 24 23 25 26 28 28 27 27 25 25
56 56 57 57 56 55 53 55 50 44 36 36 39 42 35 34 32 33 33 29 26 24 25 24 25 24 23 22 23 22 24 23 22 21 22 25 22 27 25 26 28 28 26 25 24
56 56 57 58 54 53 51 55 50 43 28 36 38 35 36 36 35 32 32 31 27 26 26 26 26 26 25 24 24 26 25 24 24 24 25 24 23 25 24 23 26 27 26 25 25
56 56 57 57 55 53 48 46 44 34 29 34 33 32 35 32 30 31 30 31 31 28 28 30 29 28 28 27 25 28 27 25 26 26 24 26 24 22 22 23 25 27 26 25 24
56 56 56 56 53 50 45 44 37 32 33 31 32 31 34 29 29 30 29 29 30 29 30 29 29 27 27 26 26 25 25 25 24 24 24 23 23 22 24 24 26 28 26 25 25
56 56 56 56 54 47 47 43 34 32 31 31 30 32 33 29 29 29 29 29 31 30 30 30 28 28 27 29 26 25 26 27 26 23 23 24 22 23 26 27 28 28 27 26 25
56 56 55 57 52 49 47 39 34 33 34 29 28 29 31 28 29 28 29 30 31 30 28 28 28 28 26 26 27 24 24 27 25 24 27 23 24 26 27 27 27 28 28 26 26
54 54 53 57 53 51 44 39 37 37 36 31 29 30 29 27 28 28 28 29 31 30 31 27 26 27 25 27 29 25 27 25 25 27 25 21 22 22 26 25 27 28 28 27 26
54 49 53 57 55 48 39 40 39 39 33 32 32 31 29 27 28 27 28 27 29 30 30 29 30 28 26 25 26 25 24 25 24 26 26 23 21 26 27 26 26 27 28 28 27
52 45 55 56 45 45 41 41 40 40 39 36 34 34 29 28 27 28 28 27 26 29 28 32 32 29 25 28 29 27 26 25 25 26 24 25 24 25 26 26 28 27 28 29 28
49 49 55 53 41 41 42 41 41 40 39 39 37 35 32 30 29 28 29 28 29 29 30 33 33 32 30 28 29 26 27 26 26 30 31 29 25 26 26 26 27 28 28 29 28
48 43 48 50 47 42 40 40 40 42 40 40 39 39 35 32 32 32 30 33 33 29 37 33 33 30 28 28 28 27 27 27 26 29 28 27 25 24 26 26 26 28 29 28 28
45 41 43 41 44 44 41 40 40 40 41 42 40 39 38 35 35 33 33 34 35 35 36 32 32 30 29 28 29 29 28 27 26 26 27 26 26 27 28 28 27 27 29 28 28
38 38 41 39 41 44 43 40 39 41 41 39 40 40 39 37 37 37 38 36 34 34 34 35 34 33 31 30 28 28 29 29 28 27 27 27 27 29 29 28 27 27 27 27 28
41 41 40 39 38 38 42 41 40 41 41 41 41 40 39 39 40 39 39 38 37 34 34 35 35 33 32 31 29 28 29 28 28 28 27 26 30 32 28 28 27 27 27 26 26

GFSSW_sfc_dewp_033.txt.gz
Dewpoint
57 57 57 57 58 58 59 60 60 61 61 61 61 60 59 59 59 49 28 44 49 59 54 33 32 32 32 31 30 26 15 14 15 16 18 21 18 21 23 20 21 24 25 29 30
57 56 57 57 57 58 59 60 60 61 61 61 61 60 59 59 47 33 51 58 60 60 34 28 24 26 25 29 30 23 17 11 18 17 19 21 20 21 20 19 20 25 28 29 29
57 57 57 57 57 58 59 60 60 61 61 61 61 60 60 56 38 29 56 58 61 51 33 32 28 24 22 27 26 23 15 15 20 21 21 22 22 22 20 20 20 22 27 28 29
57 57 57 57 57 58 59 59 60 61 61 61 61 60 58 46 27 37 57 59 59 39 34 31 26 20 20 21 27 21 21 19 26 28 26 25 25 23 23 25 27 27 28 28 28
58 58 58 57 57 58 58 59 60 61 61 61 60 59 48 35 34 47 57 58 41 36 31 26 21 21 19 20 26 24 24 26 28 29 27 28 26 24 24 28 28 28 29 28 29
58 58 58 58 58 58 58 59 60 60 59 59 59 58 41 34 45 42 39 41 35 33 29 27 22 24 21 21 24 26 26 24 25 25 25 26 23 25 23 28 27 27 27 28 28
59 58 58 58 58 58 58 59 60 60 58 57 56 48 40 37 45 42 37 35 36 33 29 31 30 27 26 24 28 26 22 22 23 24 23 26 24 24 24 27 26 26 27 27 27
58 58 58 58 58 58 58 59 58 59 57 58 57 43 37 38 46 42 38 35 35 34 33 34 33 30 28 28 24 22 23 22 25 24 25 25 22 25 25 25 25 25 26 27 27
57 57 58 58 58 58 58 58 58 57 56 57 48 41 35 46 41 43 39 33 34 34 34 32 34 29 28 22 23 24 20 23 23 24 24 24 23 25 25 24 25 25 26 27 26
56 57 57 57 58 58 58 57 59 55 52 47 42 39 37 33 39 40 37 35 33 34 32 32 29 26 26 23 20 22 23 23 23 23 24 23 23 24 23 23 24 25 27 27 26
56 57 57 57 58 58 57 55 47 47 48 38 39 36 34 33 37 38 36 33 33 31 29 31 26 25 25 25 23 23 23 22 23 23 23 23 23 22 24 23 23 24 26 27 26
56 57 57 57 58 58 56 47 46 45 41 44 43 39 33 33 30 36 35 31 31 29 29 28 26 26 26 27 25 24 23 23 25 23 23 23 23 23 23 24 24 24 26 27 26
56 57 57 57 58 57 52 50 47 44 40 38 43 41 37 32 30 33 34 32 30 29 28 26 26 26 27 25 24 24 24 24 23 24 24 23 23 25 25 25 25 26 27 27 26
56 56 56 57 55 52 51 52 53 46 33 29 39 42 37 34 32 34 34 29 26 26 27 26 26 25 26 24 24 24 25 24 24 23 24 25 22 26 27 28 28 29 28 27 26
56 56 55 57 48 50 49 53 54 48 24 31 39 39 36 35 34 32 33 30 26 26 26 25 25 25 25 25 25 25 26 26 27 27 27 27 24 26 28 26 27 28 29 27 26
56 56 55 56 55 52 54 54 51 35 24 34 35 36 35 36 33 31 30 31 31 27 27 28 30 27 27 28 26 29 28 26 27 28 26 28 27 25 25 25 27 28 28 27 26
56 56 55 55 50 51 52 50 38 28 28 29 33 34 35 34 32 31 29 28 28 26 27 29 29 29 29 28 27 28 28 28 26 26 26 24 27 26 25 25 26 28 27 27 26
56 56 55 54 54 49 51 45 33 28 27 34 33 33 34 33 32 31 30 28 29 30 28 30 29 31 29 31 29 27 28 29 27 26 25 24 22 23 27 27 28 28 27 26 25
56 55 54 55 55 51 49 36 32 27 26 29 32 32 33 32 32 30 31 30 31 31 29 28 29 30 29 29 31 27 27 30 28 29 27 23 24 25 28 27 27 28 27 26 25
54 53 52 55 56 51 44 37 35 33 29 31 28 31 31 31 30 30 31 32 32 32 33 30 28 29 28 27 28 27 28 26 26 30 26 21 23 23 28 26 26 28 28 26 26
53 49 54 56 54 47 39 38 37 36 33 32 31 29 29 30 31 29 31 31 32 32 32 31 30 28 27 26 26 26 25 26 26 27 27 24 22 25 26 26 26 27 29 28 27
51 45 55 56 44 45 40 41 39 37 38 36 34 33 31 30 30 30 30 30 30 32 30 33 31 31 26 28 28 27 26 26 26 26 26 26 25 25 27 27 29 27 29 29 28
47 48 55 53 40 41 42 41 40 40 39 37 35 35 33 31 29 30 31 31 30 32 32 33 32 34 32 29 29 26 27 27 26 31 31 29 26 26 27 27 28 28 29 30 29
47 42 48 50 46 42 40 39 39 42 40 40 37 37 35 34 31 31 32 32 32 31 39 35 34 34 30 29 28 26 26 27 26 27 27 28 27 23 25 26 27 29 29 29 30
46 41 43 42 44 43 41 38 38 38 41 40 39 37 37 34 34 32 34 33 34 35 34 32 34 34 34 34 32 30 28 27 26 26 27 27 27 29 26 26 26 28 30 29 29
38 39 41 39 40 43 41 39 37 38 39 39 38 39 38 37 37 36 34 34 33 33 32 35 33 34 34 34 33 31 31 30 28 27 27 27 27 29 26 27 27 27 29 29 29
41 44 40 36 38 38 40 41 40 39 39 40 40 39 38 39 39 39 38 39 38 35 32 35 34 34 32 35 34 29 32 30 30 28 28 26 29 33 30 28 28 29 29 29 29

GFSSW_sfc_dewp_036.txt.gz
Dewpoint
57 57 57 58 58 59 59 60 60 61 61 61 61 61 60 60 59 52 37 48 52 58 54 35 34 36 34 37 37 32 24 20 18 20 22 22 19 23 24 21 23 26 28 29 31
57 56 57 57 57 58 59 60 60 61 61 61 61 61 60 59 49 39 52 58 59 60 39 32 30 32 29 35 34 28 27 22 20 19 21 21 20 22 21 20 23 26 28 29 31
57 57 57 57 57 58 59 60 60 61 61 61 61 61 60 57 44 38 56 58 60 54 37 34 31 29 29 31 30 28 23 18 21 27 26 23 23 23 21 21 24 25 28 29 30
58 57 57 57 58 58 59 59 60 61 61 61 61 60 59 49 33 45 59 59 59 44 37 37 30 28 28 28 29 26 23 21 30 31 28 26 26 25 23 28 28 28 29 29 30
59 59 58 58 58 58 58 59 60 61 61 60 60 59 50 40 39 47 56 57 47 40 35 32 25 27 24 25 29 27 25 27 29 31 28 29 28 25 24 28 28 29 30 29 30
59 58 58 58 58 58 58 59 60 60 59 59 58 57 46 37 46 42 41 45 40 36 33 31 27 27 25 25 28 29 29 26 28 28 28 28 25 25 25 27 27 28 28 28 29
58 58 58 58 58 58 58 58 58 58 59 58 59 49 43 40 46 40 38 39 39 35 35 35 32 31 29 29 30 29 25 25 24 25 26 27 25 24 26 27 26 26 27 28 28
58 58 58 58 58 58 58 58 57 58 58 58 59 48 40 44 48 42 38 37 38 37 37 37 36 36 33 32 28 25 24 23 26 26 27 26 24 26 27 26 26 26 26 27 27
57 57 57 58 58 58 58 58 57 59 57 57 50 46 38 48 42 43 40 35 36 36 37 32 38 33 32 25 24 25 21 23 25 26 26 25 26 26 26 25 25 25 26 27 27
57 56 57 57 57 58 58 58 58 58 55 48 44 42 37 36 42 43 41 38 37 37 35 35 32 29 29 24 22 24 24 24 24 24 25 24 24 25 25 25 25 25 26 27 27
56 56 57 57 57 58 57 55 51 49 49 40 40 39 35 36 42 40 39 36 35 35 31 32 29 28 26 26 25 24 23 23 24 24 24 25 25 24 24 24 24 25 26 27 27
57 56 57 57 57 58 56 49 48 46 42 46 44 42 35 35 33 38 38 33 34 31 32 30 28 29 29 28 28 25 24 24 25 24 24 24 24 25 25 24 23 24 26 28 26
57 56 56 57 57 57 53 48 48 47 43 35 44 43 38 34 33 36 35 34 32 31 30 28 29 29 28 28 26 26 25 24 25 26 24 23 23 24 26 26 25 25 25 28 26
57 56 56 56 55 52 50 52 53 50 34 27 41 43 36 36 34 37 36 34 30 29 30 29 29 27 28 27 26 24 27 26 26 25 23 24 23 26 27 27 26 26 27 28 26
57 56 56 56 49 49 48 52 53 51 20 33 38 42 38 35 34 35 35 32 29 27 28 28 27 27 28 26 27 27 29 27 28 28 29 27 25 26 27 26 27 28 29 28 27
56 56 56 55 53 50 53 54 53 35 24 34 36 37 35 36 34 33 33 32 33 29 28 28 31 28 28 28 28 30 29 28 28 28 26 28 27 26 26 27 28 29 29 28 27
56 56 55 54 48 54 54 52 37 29 22 26 34 36 35 35 33 31 29 28 27 26 25 27 29 30 30 28 29 29 29 27 25 24 25 25 28 27 27 25 27 29 29 28 27
56 56 55 54 53 54 53 41 29 29 22 34 34 35 34 35 34 32 29 27 28 28 26 26 27 29 30 30 29 28 29 29 23 25 26 24 23 26 29 28 28 29 29 27 26
56 55 54 54 55 54 48 33 30 30 28 25 33 32 34 34 33 31 30 29 29 28 26 27 29 31 30 31 31 28 27 30 27 22 23 26 25 26 28 27 28 28 27 26 26
54 53 52 55 56 52 44 35 35 33 32 27 23 30 31 32 32 31 31 32 31 29 31 30 28 31 27 28 29 29 30 26 27 19 21 25 24 24 27 26 27 28 27 26 26
52 48 53 55 55 47 36 36 36 37 34 32 26 25 25 32 31 30 32 32 32 32 30 32 31 28 28 26 27 27 26 27 27 28 25 23 24 25 27 28 26 28 27 26 26
50 44 54 55 45 44 40 40 38 36 39 36 32 28 29 26 31 31 31 32 33 33 30 34 33 28 26 28 29 28 27 27 26 25 26 26 24 25 28 29 27 28 28 27 27
46 46 54 53 40 40 41 39 41 37 37 36 36 33 31 31 29 32 32 33 34 33 32 34 34 31 30 29 29 27 27 27 27 29 26 24 25 26 27 28 28 28 29 28 27
46 41 45 49 47 42 39 39 39 41 39 38 35 37 35 33 32 31 32 34 35 34 39 36 35 32 29 28 30 26 26 27 27 26 25 26 26 24 26 27 28 29 29 29 28
46 41 42 40 42 42 41 38 37 37 40 39 38 36 38 35 34 33 33 33 34 37 36 34 34 33 32 31 31 29 28 27 26 26 26 26 26 27 28 27 28 29 30 29 29
39 39 41 40 40 40 42 39 38 38 39 38 38 38 38 35 34 33 34 33 32 32 32 34 33 33 31 31 33 32 33 29 27 27 27 26 26 29 29 27 27 29 29 29 29
42 43 41 38 38 37 36 38 40 40 39 39 39 39 39 40 40 39 38 37 37 33 32 35 34 33 31 31 32 31 34 34 32 28 28 26 28 30 29 26 26 27 29 29 29

GFSSW_sfc_dewp_042.txt.gz
Dewpoint
57 58 58 58 58 59 60 60 60 61 61 61 61 61 61 61 58 52 39 46 50 58 56 36 31 31 32 30 29 24 16 16 20 16 19 21 19 23 22 22 27 28 28 30 38
57 57 57 58 58 59 59 60 60 60 61 61 61 61 61 60 51 40 53 57 57 57 36 30 27 25 26 28 29 25 19 18 21 21 20 19 19 21 20 22 25 27 29 31 37
57 57 57 58 58 58 59 59 60 60 61 61 60 59 59 58 40 36 58 57 56 52 40 35 32 26 24 25 28 23 17 17 24 28 24 21 21 22 19 20 24 24 28 31 34
58 57 57 57 57 58 58 59 59 60 59 60 60 59 59 51 28 43 57 56 56 45 37 33 27 21 22 24 27 13 21 24 29 29 26 22 24 22 21 21 28 26 29 31 32
58 58 57 57 57 57 58 59 59 58 58 59 60 59 50 36 37 46 55 54 46 38 32 29 23 22 20 24 25 22 24 26 29 27 27 28 26 24 24 28 29 29 30 31 31
56 57 58 57 57 57 58 58 58 58 58 59 60 58 45 31 45 44 44 43 38 35 30 29 28 26 23 23 21 27 27 26 28 27 27 25 24 26 25 28 28 29 30 30 31
55 55 57 57 57 57 58 58 58 58 58 59 59 54 42 35 44 39 39 37 37 35 31 33 33 27 28 26 29 27 19 21 23 27 26 26 23 24 25 28 27 28 29 30 31
57 56 56 56 57 57 57 58 58 58 58 59 60 50 36 44 46 39 37 35 34 34 35 35 34 31 28 29 25 22 22 21 23 25 26 22 20 24 27 26 27 27 28 28 29
57 56 56 56 57 57 57 58 58 58 59 60 49 45 34 47 45 43 36 33 35 34 33 33 32 28 25 22 22 24 21 21 22 26 25 23 22 25 27 26 26 27 27 27 27
57 56 56 55 54 57 57 58 57 57 54 54 46 36 35 36 43 41 39 35 34 33 29 30 30 28 26 22 19 21 21 21 22 24 24 23 23 24 27 26 26 26 26 27 27
57 56 56 56 55 57 56 52 41 39 47 25 32 27 35 38 40 39 39 35 34 31 26 30 26 24 26 22 23 23 23 22 23 25 24 23 23 23 24 25 25 25 26 27 27
58 57 56 56 56 57 54 48 43 44 37 43 44 40 36 37 34 38 36 32 32 29 30 29 26 27 28 27 25 24 23 23 24 25 23 23 23 25 26 25 25 25 25 26 27
58 57 56 56 56 55 52 50 47 45 38 36 44 43 37 36 33 36 35 33 31 30 30 28 28 31 29 28 26 26 24 24 24 25 24 24 23 23 25 26 25 26 25 26 27
57 58 57 57 53 53 50 53 53 48 20 22 36 41 35 36 34 38 36 33 31 29 30 29 30 28 30 28 27 25 27 26 25 25 22 26 20 24 25 25 26 26 25 25 27
56 58 57 55 52 50 50 53 52 38 12 22 38 40 36 31 33 35 36 31 30 30 30 27 29 29 28 28 28 27 28 26 26 25 26 26 23 24 26 26 26 27 28 25 27
53 56 57 55 55 52 52 54 52 30 16 24 38 35 33 35 33 33 33 31 31 29 28 27 30 29 29 28 28 29 28 29 30 27 24 25 24 23 25 26 27 28 29 26 27
53 53 56 56 51 55 57 48 33 28 31 25 34 35 35 33 31 31 30 28 27 25 25 27 27 29 28 27 29 28 25 22 24 23 22 27 25 24 27 29 28 28 29 28 27
53 53 55 56 55 56 53 40 28 33 31 34 36 35 33 34 32 30 29 29 29 27 25 25 23 28 29 27 27 28 25 24 19 21 22 25 24 26 29 30 30 29 29 28 26
52 51 53 55 56 55 46 32 33 33 32 30 34 33 33 34 32 29 29 28 29 28 23 25 24 29 29 30 27 26 26 28 26 16 21 26 26 28 29 27 28 28 29 26 26
48 46 48 56 56 53 41 35 34 37 33 32 29 33 32 33 31 30 29 30 29 30 29 26 24 29 27 29 29 27 29 26 27 18 18 24 25 25 27 27 27 27 29 27 26
47 42 48 56 54 47 36 35 36 36 33 31 31 32 32 33 32 31 31 30 31 30 29 28 30 28 28 27 27 27 27 28 28 27 22 19 22 27 27 27 27 27 28 28 26
45 37 49 55 43 44 40 38 38 35 37 36 34 30 31 33 32 31 31 30 32 30 28 30 31 27 26 29 29 30 28 28 26 23 26 25 24 26 29 28 28 28 28 29 27
40 39 49 52 38 38 41 40 41 36 34 36 36 36 34 32 32 32 32 34 34 31 30 31 31 25 27 28 28 27 28 28 28 27 25 23 24 26 27 28 28 28 28 29 27
39 33 39 46 43 40 36 39 38 40 36 35 34 37 35 33 35 33 34 34 35 33 38 34 34 28 25 25 28 26 27 28 28 26 26 25 25 26 26 26 27 28 28 28 27
39 35 34 35 36 40 39 38 35 37 39 37 35 35 35 34 35 35 35 33 34 37 36 33 33 31 30 30 28 27 27 28 28 27 26 26 26 27 28 26 27 28 29 28 27
35 34 37 34 37 38 35 37 34 37 37 37 36 36 35 34 35 34 36 34 33 35 33 35 33 33 32 31 31 29 28 28 29 29 28 28 27 29 29 29 28 28 29 29 28
38 40 39 33 33 33 35 37 35 37 38 41 39 37 36 37 37 37 38 38 39 35 35 36 35 34 32 32 31 31 32 29 28 28 28 27 28 30 30 29 29 29 29 29 29

GFSSW_sfc_dewp_045.txt.gz
Dewpoint
57 58 58 58 58 59 59 59 60 60 61 61 60 60 60 60 58 51 34 45 49 59 56 36 29 28 31 29 27 21 15 15 14 15 17 20 19 22 23 23 27 28 31 30 44
57 57 57 58 58 58 59 59 59 60 60 60 60 60 60 60 50 39 52 57 57 56 34 29 26 25 25 28 27 22 16 18 20 18 20 20 19 21 20 23 24 27 30 38 41
57 57 57 57 57 58 58 59 59 59 58 58 60 60 60 57 39 33 57 58 57 50 39 35 31 24 24 26 27 19 16 18 22 26 24 20 20 22 20 20 22 24 30 36 39
57 57 57 57 57 57 58 58 59 58 58 58 60 60 59 51 21 41 57 56 57 46 36 31 24 22 23 23 26 24 20 20 27 28 23 21 22 21 20 20 26 24 30 33 37
57 58 57 57 57 57 58 58 58 58 58 59 60 59 49 33 36 44 55 52 43 37 31 26 22 21 20 24 24 19 22 25 28 27 26 28 24 22 23 30 28 28 30 32 35
57 57 57 57 57 57 57 58 58 58 58 59 60 58 45 28 44 42 43 41 36 33 29 28 25 25 22 22 20 26 27 25 27 27 26 25 25 26 25 28 28 29 29 31 33
56 55 55 57 57 57 57 58 58 58 58 59 60 53 40 31 44 38 37 37 36 34 30 32 31 25 25 25 28 26 19 21 21 27 25 25 23 23 25 28 27 28 29 30 31
57 56 55 55 56 57 57 57 57 58 58 59 60 47 30 42 46 38 36 34 34 34 34 34 32 30 27 27 24 21 22 20 22 26 26 21 18 21 26 27 27 27 28 29 30
57 56 56 56 55 57 57 57 57 57 58 58 48 43 27 46 44 44 36 32 34 33 33 33 32 28 24 22 22 23 20 21 21 26 25 22 21 24 27 27 26 27 27 28 29
57 56 56 56 55 55 57 57 57 57 54 52 45 29 33 35 42 40 37 35 32 30 27 29 29 28 23 22 18 20 22 21 21 24 24 23 23 24 26 26 26 26 27 27 28
57 57 56 56 55 56 55 49 35 33 46 21 28 21 34 38 40 39 37 34 33 28 25 29 24 23 25 22 22 22 21 21 23 25 23 23 23 23 24 26 26 26 26 26 27
58 57 57 56 55 56 53 45 36 40 29 41 42 40 37 38 35 38 36 32 30 28 29 27 24 26 27 27 23 23 23 22 24 25 24 24 23 24 25 25 25 26 26 26 27
57 58 57 56 56 55 51 48 48 46 32 31 43 41 38 36 33 35 34 33 31 29 29 27 26 30 27 27 25 25 23 23 23 25 24 24 22 23 24 26 26 26 26 26 26
56 57 57 57 53 52 49 52 52 46 20 20 31 39 36 36 34 38 35 33 31 29 30 29 30 29 29 27 26 24 27 26 25 24 22 26 20 23 24 24 26 26 26 26 26
53 55 57 55 52 50 50 54 52 36 26 27 36 39 36 30 32 35 36 32 30 30 29 25 29 27 28 28 28 27 28 26 25 26 24 25 22 22 26 25 26 26 27 27 27
53 53 55 55 55 54 55 54 50 34 27 24 38 34 33 33 32 33 33 31 32 29 29 27 30 30 29 29 28 29 28 28 29 26 23 24 23 20 23 25 26 27 28 29 28
52 52 51 56 51 56 56 49 34 29 34 28 34 34 33 32 31 31 30 28 26 25 24 27 27 28 28 27 29 27 25 22 21 21 21 26 23 20 23 26 27 26 28 29 30
52 50 50 53 56 56 52 40 29 34 32 35 35 35 33 33 31 30 30 29 29 27 24 23 20 27 28 27 26 27 25 23 17 19 20 26 24 25 29 29 29 30 30 30 28
49 47 49 53 56 56 46 33 34 34 34 33 35 32 32 34 32 29 29 29 29 28 21 24 24 29 29 28 27 26 25 27 23 16 21 22 24 26 29 28 28 29 29 29 28
46 45 45 54 56 52 42 37 36 36 34 35 32 33 31 33 31 29 28 29 29 30 28 25 22 29 28 30 30 26 29 25 26 15 15 21 23 23 27 27 28 28 28 29 28
44 42 44 53 54 47 38 36 37 36 34 32 32 32 32 33 32 30 30 30 30 30 29 28 28 27 28 27 27 28 27 27 27 25 21 18 20 27 27 27 27 28 28 28 28
39 36 44 53 40 41 37 40 38 36 37 35 34 32 32 33 32 31 30 29 32 31 28 30 30 26 26 30 30 29 27 27 24 22 25 24 21 26 28 28 28 27 28 29 28
34 35 43 49 34 34 36 36 39 36 36 35 35 34 32 32 32 32 32 33 33 31 30 31 30 21 25 29 28 27 28 27 28 27 25 22 23 26 29 29 28 28 28 28 29
34 29 35 39 40 36 33 33 35 40 38 36 36 37 35 31 33 32 33 33 35 32 38 35 33 27 23 25 28 26 27 28 27 25 25 25 24 26 27 26 27 28 29 29 28
35 29 32 32 32 35 36 38 32 34 40 39 36 36 35 32 32 31 34 34 35 37 35 35 34 33 31 31 28 28 27 28 27 27 26 26 26 27 28 27 27 28 28 28 28
33 29 32 32 33 33 31 32 34 36 36 37 37 35 37 35 33 33 35 34 33 35 34 37 34 34 32 33 32 29 28 28 29 28 28 27 27 29 29 31 29 29 29 28 28
39 36 35 28 28 30 31 33 30 33 38 39 38 39 36 36 37 36 37 38 37 35 34 36 36 33 31 33 33 30 31 30 29 29 29 27 29 30 30 29 30 30 29 29 29

GFSSW_sfc_dewp_048.txt.gz
Dewpoint
57 57 57 58 58 58 59 59 59 60 59 59 60 60 60 60 58 48 32 44 48 58 55 34 26 26 29 28 26 18 14 14 14 16 16 19 18 20 23 24 26 28 33 36 49
56 57 57 57 58 58 58 58 59 58 58 58 59 60 60 60 47 37 51 57 57 55 33 28 24 24 25 26 25 16 14 15 17 16 27 20 19 22 21 23 28 29 30 43 46
57 56 57 57 57 58 58 58 59 58 58 59 59 60 60 56 33 33 55 56 57 49 37 34 28 23 23 31 33 17 12 18 21 25 24 20 19 21 21 21 21 23 29 42 42
57 57 56 56 56 57 58 58 58 58 59 59 60 60 59 45 15 40 54 55 56 44 35 28 22 24 24 29 25 25 20 18 25 27 22 20 21 22 20 20 26 23 32 41 41
57 57 57 56 56 57 57 58 58 58 58 59 60 60 47 30 34 44 53 50 41 35 29 24 20 19 18 24 22 23 21 24 27 26 30 27 24 21 22 22 28 27 35 39 41
56 57 57 57 56 56 57 57 57 58 58 58 60 58 43 22 44 42 40 38 35 31 29 27 23 23 22 22 19 25 26 25 26 26 25 26 31 33 28 27 27 27 31 36 38
56 56 56 56 57 57 57 57 57 57 57 58 59 52 39 26 45 37 37 36 35 33 29 32 30 24 24 24 27 25 24 21 20 26 25 28 21 23 25 27 26 27 28 30 33
57 56 56 56 55 56 57 57 57 57 58 58 59 44 22 41 46 38 35 33 34 33 33 34 31 29 27 26 24 22 22 21 21 26 25 20 17 19 24 26 26 27 27 29 30
57 57 56 56 56 55 56 57 57 57 58 58 46 41 19 45 43 43 35 31 33 32 32 32 30 27 24 22 22 22 18 21 20 26 24 21 19 23 27 26 25 26 27 28 29
57 57 56 56 56 54 56 57 56 56 53 48 44 24 30 32 41 39 36 35 30 28 26 28 29 27 23 22 14 20 21 22 21 26 24 23 22 23 25 26 26 26 27 27 28
58 57 56 56 56 55 54 45 27 26 44 18 23 19 33 38 40 38 36 33 31 26 24 29 23 23 23 22 25 20 22 24 22 24 23 23 23 23 24 26 25 26 26 26 27
57 58 57 56 56 56 52 39 32 39 30 37 38 37 38 39 36 38 36 31 29 26 28 26 23 25 26 24 23 23 25 22 23 25 24 24 24 25 25 25 25 25 26 26 27
56 57 58 57 56 54 50 47 50 46 29 27 41 39 36 36 33 35 34 32 29 28 27 25 25 29 26 26 24 23 22 22 22 25 26 24 23 23 24 25 25 26 26 26 26
53 55 57 57 53 52 49 52 52 44 25 26 28 37 36 36 32 37 35 32 30 28 29 27 29 28 27 26 25 23 26 25 24 24 22 25 19 22 23 23 25 25 26 26 26
52 53 55 56 52 50 52 53 52 36 30 31 33 38 36 28 31 35 35 32 29 29 29 24 29 28 27 27 27 25 28 27 27 25 24 23 22 22 26 24 24 24 26 27 27
52 52 52 55 54 54 55 55 50 36 30 28 36 34 33 32 32 33 33 31 31 29 31 25 32 29 28 29 28 29 27 27 29 26 22 24 22 19 22 23 24 25 26 27 28
51 51 49 48 51 56 56 49 35 30 37 32 33 33 32 31 31 31 31 28 26 25 24 26 27 28 28 27 28 27 25 20 18 20 20 25 22 19 21 22 25 25 25 27 29
49 50 47 49 56 56 51 40 30 33 35 35 35 34 31 31 30 30 30 29 29 27 22 21 16 27 28 27 26 26 25 22 13 16 17 25 23 23 27 27 27 27 28 30 29
48 45 47 50 53 55 46 34 34 35 38 36 36 33 32 34 31 29 29 29 30 27 20 22 22 28 28 28 26 26 25 26 20 14 19 18 20 23 26 27 28 29 29 30 30
42 42 43 50 54 52 42 37 36 37 35 35 32 33 30 32 31 28 28 29 29 29 26 23 21 28 29 29 30 26 29 24 25 16 14 18 20 20 23 25 26 27 28 29 29
39 37 42 49 53 45 36 37 36 37 36 34 33 32 32 32 31 29 29 29 30 30 28 26 26 26 28 27 26 27 27 26 26 24 18 16 15 26 23 24 24 26 28 29 29
36 31 42 51 38 39 35 35 38 36 37 36 34 34 33 33 32 30 29 28 31 31 27 29 29 24 25 29 29 27 26 26 22 20 24 23 18 26 27 27 28 27 27 31 29
33 33 40 47 31 33 33 34 35 37 36 36 35 34 33 33 32 32 31 33 32 31 30 31 30 23 25 28 28 27 28 26 27 27 23 20 20 26 28 27 27 28 28 28 29
34 27 33 40 39 34 32 31 32 36 37 38 38 37 33 33 35 34 32 33 34 32 37 36 33 30 26 24 27 26 27 27 26 27 23 23 22 24 27 27 26 27 28 29 29
36 29 29 29 25 27 35 36 31 30 36 38 36 38 37 35 35 33 33 34 34 36 35 36 32 32 31 29 28 27 27 28 26 25 24 24 24 25 26 27 27 28 28 28 29
33 29 30 28 29 32 31 24 32 35 35 32 36 35 38 36 36 34 35 33 33 34 33 37 33 34 32 32 32 31 29 29 28 27 27 26 26 27 28 29 29 29 29 29 29
39 38 35 29 26 26 25 29 30 29 29 36 36 35 36 37 37 38 39 38 36 34 34 37 34 33 31 32 33 31 33 32 31 30 29 27 28 30 30 29 30 30 30 30 30